Location: *
(46.1200°N, 11.2700°E)
Time: 10:26:31
(UTC+00:00)

Cosmos 1844 Rocket - Pass Details

Date: 02 March 2021
Orbit: 826 x 843 km, 71.0° (Epoch: 19 April)

Event Time Altitude Azimuth Distance (km) Brightness Sun altitude
Rises 18:39:44 0° 333° (NNW) 3,375 6.3 -17.5°
Reaches altitude 10° 18:42:10 10° 334° (NNW) 2,437 5.5 -18.0°
Maximum altitude 18:47:46 85° 65° (ENE) 835 2.6 -18.9°
Enters shadow 18:51:43 20° 152° (SSE) 1,819 4.1 -19.6°
